User: anonymous   Login
Location: Fiddletown
(38.4917°N, 120.6633°W)
Time: 04:11:50
(UTC-07:00)
Language:

Envisat - Orbit

View from above orbital plane
View from above orbital plane
View from above satellite
View from above satellite

Ground track
Ground track

The orbit data is extracted from the following two-line orbital elements,

1 27386U 02009A   14298.15554145  .00000191  00000-0  77523-4 0  5794
2 27386 098.3682 000.2226 0001153 106.7918 306.0253 14.37743624662259
Epoch (UTC): 25 October 2014 03:43:58
Eccentricity: 0.0001153
inclination: 98.3682°
perigee height: 765 km
apogee height: 767 km
right ascension of ascending node: 0.2226°
argument of perigee: 106.7918°
revolutions per day: 14.37743624
mean anomaly at epoch: 306.0253°
orbit number at epoch: 66225

The dashed part of the orbit path shows where the satellite is in the earth's shadow,  

DLR